sat.trackr.live / text

‹ back to catalog

STARLINK-6036

NORAD 56800 · 2023-078AK

PAYLOAD ACTIVE UNKNOWN

§ Identity

Operator
Country
US
Launch date
2023-05-31
Launch site
AFWTR
Launch vehicle
Mass (kg)
RCS (m²)

Purposes: comms

External: N2YO · Heavens-Above · Gunter

§ Orbital elements

Epoch: 2026-09-20T06:13:29.442720Z

Period
96.11 min
Inclination
69.9993°
Eccentricity
0.0003560
Mean motion
14.98326200 rev/d
Perigee alt
569.6 km
Apogee alt
574.5 km
Semi-major
6,950.2 km
B*
-6.3749e-6
RAAN
213.9229°
Arg perigee
265.9939°
Mean anomaly
94.0813°
Rev number
18,182

§ Raw data

STARLINK-60361 56800U 23078AK  26263.25936855 -.00000169  00000+0 -63749-5 0  99922 56800  69.9993 213.9229 0003560 265.9939  94.0813 14.98326200181821

JSON: /api/v1/satellites/56800 · /tle

For live sub-satellite position, see the globe view (requires WebGL).

§ Visibility from observer

Set your observer location to see the next 7 days of passes ≥ 10°. The values pass through the URL so the page stays shareable.

No JS? Fill the form by hand. The geolocation button needs JavaScript.